sat.trackr.live / text

‹ back to catalog

SES-22

NORAD 52933 · 2022-071A

PAYLOAD ACTIVE UNKNOWN

§ Identity

Operator
Country
SES
Launch date
2022-06-29
Launch site
AFETR
Launch vehicle
Mass (kg)
RCS (m²)

Purposes: comms

External: N2YO · Heavens-Above · Gunter

§ Orbital elements

Epoch: 2026-05-25T03:08:58.672896Z

Period
1,436.06 min
Inclination
0.0212°
Eccentricity
0.0001208
Mean motion
1.00274080 rev/d
Perigee alt
35,780.9 km
Apogee alt
35,791.0 km
Semi-major
42,164.1 km
B*
0.0000e+0
RAAN
286.1822°
Arg perigee
130.7227°
Mean anomaly
94.0655°
Rev number
729

§ Raw data

SES-221 52933U 22071A   26145.13123464  .00000102  00000+0  00000+0 0  99972 52933   0.0212 286.1822 0001208 130.7227  94.0655  1.00274080  7290

JSON: /api/v1/satellites/52933 · /tle

For live sub-satellite position, see the globe view (requires WebGL).

§ Visibility from observer

Set your observer location to see the next 7 days of passes ≥ 10°. The values pass through the URL so the page stays shareable.

No JS? Fill the form by hand. The geolocation button needs JavaScript.